Location: Cisewo
(53.3833°N, 14.9000°E)
Time: 19:13:23
(UTC+00:00)

BEESAT 3 - Pass Details

Date: 26 September 2021
Orbit: 481 x 510 km, 64.9° (Epoch: 21 October)

Event Time Altitude Azimuth Distance (km) Brightness Sun altitude
Rises 20:33:58 0° 316° (NW) 2,617 ? -30.9°
Reaches altitude 10° 20:36:14 10° 324° (NW) 1,733 ? -31.2°
Enters shadow 20:37:37 20° 335° (NNW) 1,238 ? -31.3°
